TimeEST,TemperatureF,Dew PointF,Humidity,Sea Level PressureIn,VisibilityMPH,Wind Direction,Wind SpeedMPH,Gust SpeedMPH,PrecipitationIn,Events,Conditions,WindDirDegrees,DateUTC
12:54 AM,46.9,46.0,97,30.01,8.0,SSW,3.5,-,0.01,,Overcast,200,2012-12-07 05:54:00
1:35 AM,48.2,46.4,93,29.97,1.8,WSW,5.8,-,0.06,Rain,Heavy Rain,240,2012-12-07 06:35:00
1:46 AM,48.2,46.4,93,29.97,3.0,WSW,4.6,-,0.10,Rain,Light Rain,240,2012-12-07 06:46:00
1:54 AM,48.0,46.9,96,30.01,3.0,SW,4.6,-,0.12,Rain,Heavy Rain,230,2012-12-07 06:54:00
2:01 AM,48.2,46.4,93,29.97,2.5,SW,5.8,-,0.02,Rain,Rain,220,2012-12-07 07:01:00
2:19 AM,48.2,46.4,93,29.97,3.0,SW,5.8,-,0.06,Rain,Light Rain,220,2012-12-07 07:19:00
2:44 AM,48.2,46.4,93,29.97,2.5,SSW,6.9,-,0.13,Rain,Heavy Rain,200,2012-12-07 07:44:00
2:46 AM,48.2,46.4,93,29.97,2.5,SSW,5.8,-,0.13,Rain,Heavy Rain,210,2012-12-07 07:46:00
2:54 AM,48.0,46.9,96,30.00,4.0,SSW,4.6,-,0.14,Rain,Light Rain,210,2012-12-07 07:54:00
3:16 AM,48.2,46.4,93,29.97,4.0,SSW,5.8,-,0.01,,Overcast,210,2012-12-07 08:16:00
3:54 AM,48.0,46.9,96,30.00,5.0,SW,6.9,-,0.01,,Overcast,220,2012-12-07 08:54:00
4:54 AM,48.0,48.0,100,30.00,4.0,SW,8.1,-,N/A,,Overcast,230,2012-12-07 09:54:00
5:10 AM,48.2,48.2,100,29.96,2.0,SW,6.9,-,N/A,,Overcast,230,2012-12-07 10:10:00
5:17 AM,48.2,48.2,100,29.96,1.2,SW,6.9,-,N/A,,Overcast,230,2012-12-07 10:17:00
5:37 AM,48.2,48.2,100,29.97,0.8,SW,6.9,-,N/A,,Mist,230,2012-12-07 10:37:00
5:54 AM,48.0,48.0,100,30.01,0.8,SSW,5.8,-,0.00,,Mist,210,2012-12-07 10:54:00
6:54 AM,48.9,48.9,100,30.01,0.5,SSW,4.6,-,N/A,Fog,Fog,210,2012-12-07 11:54:00
7:54 AM,48.9,48.9,100,30.02,0.5,WSW,3.5,-,N/A,Fog,Fog,250,2012-12-07 12:54:00
8:19 AM,48.2,48.2,100,29.98,0.2,Calm,Calm,-,0.00,Fog-Rain,Light Rain,0,2012-12-07 13:19:00
8:54 AM,48.9,48.9,100,30.02,0.2,South,3.5,-,0.01,Fog-Rain,Light Rain,170,2012-12-07 13:54:00
9:36 AM,48.2,48.2,100,29.99,0.5,Calm,Calm,-,0.01,Fog-Rain,Rain,0,2012-12-07 14:36:00
9:43 AM,48.2,48.2,100,29.99,1.0,Calm,Calm,-,0.02,Rain,Light Rain,0,2012-12-07 14:43:00
9:54 AM,48.9,48.9,100,30.03,1.2,Calm,Calm,-,0.04,Rain,Rain,0,2012-12-07 14:54:00
10:04 AM,48.2,48.2,100,29.99,3.0,Calm,Calm,-,0.01,Rain,Light Rain,0,2012-12-07 15:04:00
10:11 AM,50.0,50.0,100,29.99,2.5,Calm,Calm,-,0.01,Rain,Light Rain,0,2012-12-07 15:11:00
10:21 AM,50.0,50.0,100,29.99,4.0,Calm,Calm,-,0.02,Rain,Light Rain,0,2012-12-07 15:21:00
10:37 AM,50.0,50.0,100,29.99,3.0,Calm,Calm,-,0.03,Rain,Light Rain,0,2012-12-07 15:37:00
10:44 AM,50.0,50.0,100,29.98,2.5,Calm,Calm,-,0.03,Rain,Light Rain,0,2012-12-07 15:44:00
10:51 AM,50.0,50.0,100,29.98,4.0,Calm,Calm,-,0.04,Rain,Light Rain,0,2012-12-07 15:51:00
10:54 AM,50.0,50.0,100,30.02,5.0,Calm,Calm,-,0.04,Rain,Light Rain,0,2012-12-07 15:54:00
10:58 AM,50.0,50.0,100,29.98,6.0,Calm,Calm,-,0.00,Rain,Light Rain,0,2012-12-07 15:58:00
11:10 AM,48.2,48.2,100,29.98,4.0,Calm,Calm,-,0.01,Rain,Rain,0,2012-12-07 16:10:00
11:54 AM,50.0,48.9,96,29.99,4.0,Calm,Calm,-,0.04,Rain,Light Rain,0,2012-12-07 16:54:00
12:54 PM,48.9,46.9,93,29.97,4.0,NE,5.8,-,0.04,Rain,Light Rain,40,2012-12-07 17:54:00
1:54 PM,48.9,48.0,97,29.94,5.0,ENE,5.8,-,0.04,Rain,Light Rain,70,2012-12-07 18:54:00
2:54 PM,50.0,48.9,96,29.91,6.0,East,4.6,-,0.03,Rain,Light Rain,80,2012-12-07 19:54:00
3:43 PM,50.0,48.2,94,29.88,2.5,East,5.8,-,0.01,Rain,Rain,100,2012-12-07 20:43:00
3:54 PM,50.0,50.0,100,29.91,2.5,Calm,Calm,-,0.02,Rain,Rain,0,2012-12-07 20:54:00
4:24 PM,50.0,50.0,100,29.88,1.8,ESE,4.6,-,0.04,Rain,Rain,120,2012-12-07 21:24:00
4:47 PM,50.0,50.0,100,29.88,2.0,SSE,3.5,-,0.07,Rain,Rain,150,2012-12-07 21:47:00
4:54 PM,50.0,50.0,100,29.92,2.5,South,3.5,-,0.08,Rain,Rain,170,2012-12-07 21:54:00
5:04 PM,50.0,50.0,100,29.88,3.0,South,3.5,-,0.02,Rain,Rain,180,2012-12-07 22:04:00
5:54 PM,50.0,50.0,100,29.91,4.0,SSE,3.5,-,0.07,Rain,Light Rain,160,2012-12-07 22:54:00
6:54 PM,50.0,50.0,100,29.90,4.0,SE,3.5,-,0.10,Rain,Light Rain,140,2012-12-07 23:54:00
7:39 PM,50.0,50.0,100,29.87,3.0,SSE,3.5,-,0.05,Rain,Rain,160,2012-12-08 00:39:00
8:15 PM,50.0,50.0,100,29.86,4.0,SSE,4.6,-,0.00,,Overcast,150,2012-12-08 01:15:00
8:54 PM,51.1,51.1,100,29.89,6.0,South,5.8,-,0.01,,Overcast,180,2012-12-08 01:54:00
9:54 PM,52.0,51.1,97,29.88,5.0,South,8.1,-,N/A,,Overcast,190,2012-12-08 02:54:00
10:19 PM,51.8,51.8,100,29.84,2.5,SSW,8.1,-,0.00,Rain,Light Rain,210,2012-12-08 03:19:00
10:51 PM,53.6,53.6,100,29.84,3.0,SSW,9.2,-,0.00,,Overcast,210,2012-12-08 03:51:00
10:54 PM,53.1,53.1,100,29.86,3.0,SSW,8.1,-,0.00,,Overcast,210,2012-12-08 03:54:00
11:31 PM,53.6,53.6,100,29.84,5.0,SW,11.5,-,N/A,,Overcast,220,2012-12-08 04:31:00
11:54 PM,54.0,53.1,97,29.87,6.0,SW,15.0,-,N/A,,Overcast,230,2012-12-08 04:54:00